{"data":{"norad_id":55146,"intl_designator":"2023-004G","name":"ONEWEB-0565","alt_names":[],"object_type":"PAYLOAD","status":"ACTIVE","operator":null,"country":"UK","launch_date":"2023-01-10","launch_site_code":"AFETR","launch_vehicle":null,"mission":null,"orbit_class":"UNKNOWN","rcs_meters":null,"size_class":null,"mass_kg":null,"dimensions":null,"purposes":["comms"],"wikipedia_slug":null,"has_3d_model":false,"image_url":null,"decayed_at":null,"tle_current":{"epoch":"2026-05-25T01:51:07.996032Z","epoch_age_seconds":78860,"freshness":"FRESH","line1":"1 55146U 23004G   26145.07717588 -.00000017  00000+0 -75649-4 0  9995","line2":"2 55146  87.9152 340.0896 0001547 100.0898 260.0409 13.18685446166659","mean_motion":13.18685446,"eccentricity":0.0001547,"inclination_deg":87.9152,"raan_deg":340.0896,"arg_perigee_deg":100.0898,"mean_anomaly_deg":260.0409,"bstar":-7.5649e-5,"rev_number":16665,"period_min":109.19965821781,"perigee_km":1188.5744950717,"apogee_km":1190.9159978388,"semimajor_km":7567.8822464552,"source":"CELESTRAK","updated_at":"2026-05-25T13:38:22.640345Z"}}}